Location: Unspecified
(41.5000°N, 0.0000°E)
Time: 01:12:05
(UTC+00:00)

deb Explorer IX - Pass Details

Date: 22 June 2019
Orbit: 539 x 1111 km, 38.8° (Epoch: 18 August)

Event Time Altitude Azimuth Distance (km) Brightness Sun altitude
Rises 16:48:48 0° 273° (W) 3,927 ? 28.6°
Reaches altitude 10° 16:51:37 10° 271° (W) 2,975 ? 28.1°
Maximum altitude 16:58:56 67° 191° (S) 1,168 ? 26.8°
Drops below altitude 10° 17:05:46 10° 110° (ESE) 2,785 ? 25.5°
Sets 17:08:19 0° 108° (ESE) 3,664 ? 25.0°
